| time (UTC) | temp F | wind direction | speed knots | gust knots | rain 1hr in | rain 24hr in | rain mn in | humidity % | barometer mb |
| 20260507113643 | 49 | 153 | 0.9 | 1.7 | 0.00 | 0.00 | 0.00 | 74 | 1018.9 |
| 20260507112642 | 49 | 153 | 0.9 | 2.6 | 0.00 | 0.00 | 0.00 | 74 | 1018.9 |
| 20260507111609 | 49 | 152 | 1.7 | 2.6 | 0.00 | 0.00 | 0.00 | 73 | 1019.0 |
| 20260507110608 | 50 | 162 | 1.7 | 3.5 | 0.00 | 0.00 | 0.00 | 72 | 1019.1 |
| 20260507105607 | 51 | 165 | 1.7 | 4.3 | 0.00 | 0.00 | 0.00 | 70 | 1019.2 |
| 20260507104607 | 52 | 170 | 0.9 | 2.6 | 0.00 | 0.00 | 0.00 | 69 | 1019.4 |
| 20260507103606 | 53 | 287 | 0.0 | 0.0 | 0.00 | 0.00 | 0.00 | 66 | 1019.6 |
| 20260507102605 | 54 | 286 | 0.0 | 2.6 | 0.00 | 0.00 | 0.00 | 65 | 1019.8 |
| 20260507101604 | 55 | 12 | 0.9 | 4.3 | 0.00 | 0.00 | 0.00 | 63 | 1020.3 |
| 20260507100603 | 55 | 241 | 0.9 | 4.3 | 0.00 | 0.00 | 0.00 | 61 | 1020.1 |
| 20260507095602 | 55 | 223 | 1.7 | 4.3 | 0.00 | 0.00 | 0.00 | 61 | 1020.2 |
| 20260507094601 | 56 | 221 | 1.7 | 5.2 | 0.00 | 0.00 | 0.00 | 61 | 1020.3 |
| 20260507093600 | 56 | 221 | 1.7 | 5.2 | 0.00 | 0.00 | 0.00 | 60 | 1020.2 |
| 20260507092559 | 56 | 224 | 1.7 | 4.3 | 0.00 | 0.00 | 0.00 | 59 | 1019.9 |
| 20260507091558 | 57 | 227 | 0.9 | 4.3 | 0.00 | 0.00 | 0.00 | 59 | 1020.0 |
| 20260507090454 | 58 | 226 | 2.6 | 4.3 | 0.00 | 0.00 | 0.00 | 58 | 1020.1 |
| 20260507085454 | 58 | 55 | 0.9 | 2.6 | 0.00 | 0.00 | 0.00 | 57 | 1020.2 |
| 20260507084453 | 59 | 19 | 1.7 | 4.3 | 0.00 | 0.00 | 0.00 | 54 | 1020.3 |
| 20260507083452 | 61 | 232 | 0.0 | 5.2 | 0.00 | 0.00 | 0.00 | 52 | 1020.3 |
| 20260507082420 | 61 | 233 | 0.9 | 9.6 | 0.00 | 0.00 | 0.00 | 50 | 1020.4 |
| 20260507081419 | 62 | 244 | 1.7 | 9.6 | 0.00 | 0.00 | 0.00 | 49 | 1020.5 |
| 20260507080418 | 62 | 238 | 1.7 | 8.7 | 0.00 | 0.00 | 0.00 | 49 | 1020.5 |
| 20260507075417 | 62 | 232 | 1.7 | 7.8 | 0.00 | 0.00 | 0.00 | 48 | 1020.5 |
| 20260507074415 | 62 | 233 | 2.6 | 7.8 | 0.00 | 0.00 | 0.00 | 49 | 1020.4 |
| 20260507073311 | 61 | 242 | 1.7 | 7.0 | 0.00 | 0.00 | 0.00 | 50 | 1020.3 |
| 20260507072239 | 62 | 224 | 1.7 | 5.2 | 0.00 | 0.00 | 0.00 | 51 | 1020.1 |
| 20260507071238 | 62 | 225 | 1.7 | 5.2 | 0.00 | 0.00 | 0.00 | 49 | 1020.1 |
| 20260507070238 | 63 | 224 | 3.5 | 5.2 | 0.00 | 0.00 | 0.00 | 47 | 1020.1 |
| 20260507065237 | 63 | 230 | 0.9 | 6.1 | 0.00 | 0.00 | 0.00 | 47 | 1020.2 |
| 20260507064236 | 63 | 235 | 1.7 | 6.1 | 0.00 | 0.00 | 0.00 | 47 | 1020.1 |
| 20260507063235 | 64 | 226 | 1.7 | 6.1 | 0.00 | 0.00 | 0.00 | 46 | 1020.2 |
| 20260507062234 | 64 | 226 | 1.7 | 9.6 | 0.00 | 0.00 | 0.00 | 45 | 1020.3 |
| 20260507061131 | 64 | 224 | 1.7 | 10.4 | 0.00 | 0.00 | 0.00 | 45 | 1020.1 |
| 20260507060130 | 64 | 228 | 1.7 | 9.6 | 0.00 | 0.00 | 0.00 | 46 | 1020.0 |
| 20260507055058 | 63 | 226 | 1.7 | 9.6 | 0.00 | 0.00 | 0.00 | 47 | 1020.0 |
| 20260507054057 | 64 | 223 | 1.7 | 8.7 | 0.00 | 0.00 | 0.00 | 49 | 1020.0 |
| 20260507053024 | 64 | 223 | 1.7 | 8.7 | 0.00 | 0.00 | 0.00 | 48 | 1019.8 |
| 20260507051952 | 64 | 228 | 3.5 | 8.7 | 0.00 | 0.00 | 0.00 | 48 | 1019.7 |
| 20260507050951 | 64 | 223 | 2.6 | 7.8 | 0.00 | 0.00 | 0.00 | 48 | 1019.8 |
| 20260507045950 | 63 | 232 | 2.6 | 7.0 | 0.00 | 0.00 | 0.00 | 50 | 1019.6 |
| 20260507044949 | 62 | 232 | 2.6 | 7.8 | 0.00 | 0.00 | 0.00 | 53 | 1019.3 |
| 20260507043948 | 60 | 225 | 1.7 | 7.8 | 0.00 | 0.00 | 0.00 | 61 | 1019.1 |
| 20260507042947 | 60 | 175 | 0.9 | 3.5 | 0.00 | 0.00 | 0.00 | 69 | 1019.1 |
| 20260507041914 | 60 | 147 | 1.7 | 4.3 | 0.00 | 0.00 | 0.00 | 69 | 1019.0 |
| 20260507040842 | 61 | 156 | 1.7 | 4.3 | 0.00 | 0.00 | 0.00 | 69 | 1018.9 |
| 20260507035810 | 61 | 159 | 0.9 | 3.5 | 0.00 | 0.00 | 0.00 | 69 | 1018.8 |
| 20260507034738 | 61 | 146 | 0.0 | 1.7 | 0.00 | 0.00 | 0.00 | 68 | 1018.8 |
| 20260507033737 | 62 | 96 | 0.9 | 2.6 | 0.00 | 0.00 | 0.00 | 68 | 1018.8 |
| 20260507032705 | 62 | 94 | 0.9 | 2.6 | 0.00 | 0.00 | 0.00 | 67 | 1018.8 |
| 20260507031704 | 63 | 38 | 0.9 | 1.7 | 0.00 | 0.00 | 0.00 | 66 | 1018.8 |
| 20260507030703 | 64 | 37 | 0.0 | 1.7 | 0.00 | 0.00 | 0.00 | 66 | 1018.8 |
| 20260507025702 | 65 | 36 | 0.0 | 0.9 | 0.00 | 0.00 | 0.00 | 62 | 1018.9 |
| 20260507024700 | 66 | 36 | 0.9 | 0.9 | 0.00 | 0.00 | 0.00 | 61 | 1018.5 |
| 20260507023659 | 67 | 35 | 0.0 | 0.9 | 0.00 | 0.00 | 0.00 | 60 | 1018.6 |
| 20260507022658 | 68 | 35 | 0.0 | 0.0 | 0.00 | 0.00 | 0.00 | 55 | 1018.8 |
| 20260507021657 | 68 | 34 | 0.0 | 2.6 | 0.00 | 0.00 | 0.00 | 52 | 1018.7 |
| 20260507020656 | 69 | 35 | 0.0 | 2.6 | 0.00 | 0.00 | 0.00 | 50 | 1018.3 |
| 20260507015654 | 69 | 20 | 0.9 | 3.5 | 0.00 | 0.00 | 0.00 | 51 | 1018.3 |
| 20260507014654 | 69 | 12 | 0.0 | 3.5 | 0.00 | 0.00 | 0.00 | 50 | 1018.2 |
| 20260507013652 | 69 | 15 | 0.9 | 3.5 | 0.00 | 0.00 | 0.00 | 50 | 1018.1 |
| 20260507012651 | 69 | 20 | 1.7 | 3.5 | 0.00 | 0.00 | 0.00 | 51 | 1018.1 |
| 20260507011650 | 70 | 23 | 1.7 | 3.5 | 0.00 | 0.00 | 0.00 | 50 | 1018.0 |
| 20260507010618 | 70 | 19 | 0.9 | 3.5 | 0.00 | 0.00 | 0.00 | 50 | 1018.1 |
| 20260507005546 | 70 | 24 | 1.7 | 2.6 | 0.00 | 0.00 | 0.00 | 51 | 1018.1 |
| 20260507004513 | 70 | 18 | 1.7 | 2.6 | 0.00 | 0.00 | 0.00 | 50 | 1018.1 |
| 20260507003512 | 70 | 335 | 0.0 | 1.7 | 0.00 | 0.00 | 0.00 | 49 | 1018.1 |
| 20260507002409 | 70 | 16 | 0.9 | 2.6 | 0.00 | 0.00 | 0.00 | 50 | 1018.1 |
| 20260507001408 | 71 | 21 | 0.9 | 2.6 | 0.00 | 0.00 | 0.00 | 47 | 1018.1 |
| 20260507000407 | 71 | 17 | 1.7 | 3.5 | 0.00 | 0.00 | 0.00 | 48 | 1017.8 |
| 20260506235406 | 71 | 21 | 0.9 | 3.5 | 0.00 | 0.00 | 0.00 | 48 | 1017.7 |
| 20260506234406 | 71 | 61 | 0.9 | 3.5 | 0.00 | 0.00 | 0.00 | 46 | 1017.7 |
| 20260506233333 | 71 | 71 | 0.9 | 4.3 | 0.00 | 0.00 | 0.00 | 46 | 1017.7 |
| 20260506232332 | 71 | 17 | 1.7 | 4.3 | 0.00 | 0.00 | 0.00 | 48 | 1018.0 |
| 20260506231331 | 71 | 31 | 1.7 | 3.5 | 0.00 | 0.00 | 0.00 | 49 | 1017.8 |
| 20260506230259 | 71 | 5 | 1.7 | 3.5 | 0.00 | 0.00 | 0.00 | 47 | 1017.9 |
| 20260506225226 | 72 | 2 | 0.9 | 4.3 | 0.00 | 0.00 | 0.00 | 46 | 1018.3 |
| 20260506224155 | 72 | 10 | 0.9 | 4.3 | 0.00 | 0.00 | 0.00 | 47 | 1018.3 |
| 20260506223122 | 73 | 8 | 1.7 | 3.5 | 0.00 | 0.00 | 0.00 | 46 | 1018.4 |
| 20260506222121 | 74 | 6 | 0.9 | 4.3 | 0.00 | 0.00 | 0.00 | 44 | 1018.5 |
| 20260506221120 | 75 | 304 | 1.7 | 5.2 | 0.00 | 0.00 | 0.00 | 46 | 1018.6 |
| 20260506220017 | 75 | 328 | 0.9 | 7.8 | 0.00 | 0.00 | 0.00 | 45 | 1018.6 |
| 20260506215016 | 76 | 301 | 1.7 | 7.8 | 0.00 | 0.00 | 0.00 | 41 | 1019.0 |
| 20260506213913 | 75 | 294 | 1.7 | 8.7 | 0.00 | 0.00 | 0.00 | 41 | 1019.0 |
| 20260506212911 | 76 | 251 | 2.6 | 7.8 | 0.00 | 0.00 | 0.00 | 39 | 1019.0 |
| 20260506211910 | 75 | 286 | 3.5 | 8.7 | 0.00 | 0.00 | 0.00 | 41 | 1019.0 |
| 20260506210908 | 75 | 272 | 1.7 | 11.3 | 0.00 | 0.00 | 0.00 | 42 | 1019.4 |
| 20260506205907 | 75 | 254 | 2.6 | 11.3 | 0.00 | 0.00 | 0.00 | 42 | 1019.4 |
| 20260506204906 | 75 | 262 | 1.7 | 8.7 | 0.00 | 0.00 | 0.00 | 42 | 1019.7 |
| 20260506203905 | 74 | 266 | 1.7 | 7.8 | 0.00 | 0.00 | 0.00 | 42 | 1019.7 |
| 20260506202903 | 74 | 253 | 1.7 | 7.8 | 0.00 | 0.00 | 0.00 | 42 | 1019.7 |
| 20260506201902 | 75 | 260 | 1.7 | 10.4 | 0.00 | 0.00 | 0.00 | 42 | 1019.9 |
| 20260506200830 | 74 | 260 | 2.6 | 10.4 | 0.00 | 0.00 | 0.00 | 43 | 1019.9 |
| 20260506195758 | 74 | 232 | 1.7 | 10.4 | 0.00 | 0.00 | 0.00 | 40 | 1019.7 |
| 20260506194757 | 74 | 278 | 2.6 | 10.4 | 0.00 | 0.00 | 0.00 | 43 | 1020.1 |
| 20260506193756 | 74 | 239 | 1.7 | 7.8 | 0.00 | 0.00 | 0.00 | 38 | 1020.0 |
| 20260506192755 | 74 | 231 | 1.7 | 10.4 | 0.00 | 0.00 | 0.00 | 39 | 1020.0 |
| 20260506191754 | 74 | 230 | 1.7 | 10.4 | 0.00 | 0.00 | 0.00 | 39 | 1020.3 |
| 20260506190753 | 73 | 238 | 1.7 | 7.8 | 0.00 | 0.00 | 0.00 | 41 | 1020.3 |
| 20260506185752 | 73 | 248 | 1.7 | 8.7 | 0.00 | 0.00 | 0.00 | 39 | 1020.6 |
| 20260506184751 | 73 | 251 | 2.6 | 9.6 | 0.00 | 0.00 | 0.00 | 41 | 1020.5 |
| 20260506183750 | 73 | 223 | 2.6 | 10.4 | 0.00 | 0.00 | 0.00 | 42 | 1020.6 |
| 20260506182718 | 73 | 261 | 2.6 | 9.6 | 0.00 | 0.00 | 0.00 | 42 | 1020.6 |
| 20260506181717 | 72 | 275 | 1.7 | 9.6 | 0.00 | 0.00 | 0.00 | 41 | 1020.7 |
| 20260506180716 | 72 | 233 | 1.7 | 9.6 | 0.00 | 0.00 | 0.00 | 38 | 1020.7 |
| 20260506175714 | 72 | 230 | 1.7 | 9.6 | 0.00 | 0.00 | 0.00 | 36 | 1020.8 |
| 20260506174713 | 72 | 244 | 1.7 | 8.7 | 0.00 | 0.00 | 0.00 | 38 | 1020.7 |
| 20260506173712 | 70 | 252 | 2.6 | 7.8 | 0.00 | 0.00 | 0.00 | 38 | 1021.0 |
| 20260506172711 | 69 | 28 | 0.9 | 3.5 | 0.00 | 0.00 | 0.00 | 49 | 1020.9 |
| 20260506171710 | 67 | 46 | 0.9 | 3.5 | 0.00 | 0.00 | 0.00 | 51 | 1020.6 |
| 20260506170638 | 66 | 28 | 0.9 | 3.5 | 0.00 | 0.00 | 0.00 | 52 | 1020.9 |
| 20260506165637 | 64 | 48 | 0.9 | 2.6 | 0.00 | 0.00 | 0.00 | 54 | 1021.1 |
| 20260506164636 | 64 | 52 | 0.9 | 2.6 | 0.00 | 0.00 | 0.00 | 51 | 1021.0 |
| 20260506163604 | 63 | 52 | 0.9 | 2.6 | 0.00 | 0.00 | 0.00 | 50 | 1021.0 |
| 20260506162603 | 62 | 57 | 0.9 | 2.6 | 0.00 | 0.00 | 0.00 | 51 | 1020.9 |
| 20260506161602 | 61 | 36 | 1.7 | 2.6 | 0.00 | 0.00 | 0.00 | 53 | 1020.7 |
| 20260506160600 | 60 | 11 | 0.9 | 2.6 | 0.00 | 0.00 | 0.00 | 53 | 1020.6 |
| 20260506155559 | 59 | 19 | 0.9 | 2.6 | 0.00 | 0.00 | 0.00 | 54 | 1020.9 |
| 20260506154558 | 59 | 18 | 0.9 | 2.6 | 0.00 | 0.00 | 0.00 | 59 | 1020.9 |
| 20260506153557 | 58 | 28 | 0.9 | 2.6 | 0.00 | 0.00 | 0.00 | 58 | 1020.8 |
| 20260506152524 | 57 | 30 | 0.9 | 2.6 | 0.00 | 0.00 | 0.00 | 57 | 1020.8 |
| 20260506151523 | 57 | 342 | 0.9 | 2.6 | 0.00 | 0.00 | 0.00 | 57 | 1020.8 |
| 20260506150523 | 56 | 334 | 1.7 | 2.6 | 0.00 | 0.00 | 0.00 | 60 | 1020.8 |
| 20260506145521 | 55 | 107 | 0.9 | 1.7 | 0.00 | 0.00 | 0.00 | 61 | 1020.9 |
| 20260506144520 | 54 | 134 | 0.9 | 1.7 | 0.00 | 0.00 | 0.00 | 61 | 1020.9 |
| 20260506143448 | 53 | 134 | 0.0 | 1.7 | 0.00 | 0.00 | 0.00 | 64 | 1020.9 |
| 20260506142447 | 52 | 132 | 0.0 | 0.9 | 0.00 | 0.00 | 0.00 | 62 | 1020.9 |
| 20260506141446 | 51 | 132 | 0.0 | 0.9 | 0.00 | 0.00 | 0.00 | 65 | 1021.2 |
| 20260506140444 | 50 | 132 | 0.0 | 0.0 | 0.00 | 0.00 | 0.00 | 67 | 1020.8 |
| 20260506135444 | 49 | 132 | 0.0 | 0.0 | 0.00 | 0.00 | 0.00 | 70 | 1021.2 |
| 20260506134443 | 49 | 132 | 0.0 | 0.9 | 0.00 | 0.00 | 0.00 | 72 | 1021.1 |
| 20260506133410 | 48 | 132 | 0.0 | 2.6 | 0.00 | 0.00 | 0.00 | 74 | 1021.1 |
| 20260506132409 | 47 | 132 | 1.7 | 2.6 | 0.00 | 0.00 | 0.00 | 74 | 1020.7 |
| 20260506131408 | 47 | 136 | 0.9 | 2.6 | 0.00 | 0.00 | 0.00 | 74 | 1020.7 |
| 20260506130407 | 47 | 137 | 0.0 | 2.6 | 0.00 | 0.00 | 0.00 | 74 | 1020.4 |
| 20260506125334 | 47 | 146 | 0.9 | 1.7 | 0.00 | 0.00 | 0.00 | 74 | 1020.8 |
| 20260506124333 | 47 | 146 | 0.0 | 2.6 | 0.00 | 0.00 | 0.00 | 72 | 1020.5 |
| 20260506123332 | 47 | 146 | 0.9 | 2.6 | 0.00 | 0.00 | 0.00 | 73 | 1020.5 |
| 20260506122331 | 47 | 144 | 0.9 | 2.6 | 0.00 | 0.00 | 0.00 | 73 | 1020.5 |
| 20260506121330 | 47 | 140 | 0.9 | 2.6 | 0.00 | 0.00 | 0.00 | 73 | 1020.4 |
| 20260506120329 | 46 | 150 | 0.9 | 1.7 | 0.00 | 0.00 | 0.00 | 73 | 1019.8 |
| 20260506115328 | 46 | 151 | 0.0 | 1.7 | 0.00 | 0.00 | 0.00 | 72 | 1019.9 |